FENGYUN 1C DEB, 30750

Orbit data source: Space-Track

FENGYUN 1C DEB, 30750 is space debris in SSO originally from a launch on Mon, 10 May 1999 UTC launched from the Taiyaun Space Center, China (TSC). Fengyun 1C debris stems from the Chinese weather satellite Fengyun-1C, which was intentionally destroyed by a Chinese anti-satellite missile in 2007. This event dramatically increased the amount of space debris, with thousands of trackable fragments posing hazards to satellites and human spaceflight. The Fengyun 1C debris cloud has become a focal point in discussions about space sustainability and the need for international regulations to prevent the creation of new debris.

Loading next visibility...
Identifier
30750, 1999-025ATL
Orbit
SSO
Country
Flag of CNCN / PRC
Related business
Manufacturer
Unknown
Mission
Spacecraft
Bus & Motor
Unknown
Mass
Unknown
Launch date (UTC)
1999-05-10 (27 years ago)
Launch vehicle
Unknown
Launch site
Taiyaun Space Center, China (TSC)
Object type
Payload
Rocket body
Debris
Shape & HBR
Unknown shape, 0.1 m
Radar Cross Section
Small (<0.1 m²)

Expand to show TLE details & history
Last TLE update: 8 hours ago

TLE from 8 hours ago
0 FENGYUN 1C DEB
1 30750U 99025ATL 26063.19216465  .00005397  00000-0  21146-2 0  9991
2 30750  98.9108 144.5673 0040692 218.0657 162.8308 14.29397386979456
Epoch: 2026-03-04T04:36Z
TLE epoch observation values (Epoch: 2026-03-04T04:36:43.025Z)
Latitude
20.77559°
Longitude
-89.9644°
Altitude
824.217 km
Speed
7.428 km/s
True Right ascension
09h 24m 42s
True Declination
20° 39' 46"
Sunlit
Object was in full shadow at epoch
Visualization orbit readout
Latitude
Unknown
Longitude
Unknown
Altitude
Unknown
Speed
Unknown
Apparent Right ascension
Unknown
Apparent Declination
Unknown
Sunlit
N/A
Visualization observer readout
Local Sidereal Time
16:53:54
Azimuth
Unknown
Elevation
Unknown
Doppler factor
Unknown
Orbital elements
Apogee altitude
820.074 km
Perigee altitude
761.729 km
Semi-major axis
7,169.039 km
Eccentricity
0.00407
Inclination
98.9108°
RAAN
144.5673°
Arg. of periapsis
218.0657°
True anomaly
162.96778°
Mean anomaly
162.8308°
Eccentric anomaly
162.89936°
Mean motion
3.57562 °/min
Orbital period
100.68 mins
BSTAR
0.0021146
Loading maneuver chart data...
Computing Atmospheric mass density...

Documentation

Showing up to 5 results
|